Theta_e
325 326 325 323 324 326 330 331 337 342 338 340 342 339 339 337 337 340 341 338 339 340 338 336 335 335 334 338 338 337 339 340 341 340 343 337 326 328 329 327 331 332 332 333 333 333 331 330 330 332 336 336 335 335 335 335 334 334 334 334 333 331 330 329 329 327 326 325 325 324 324 324 323 323 322 322 323 324 325 325 326 326 326 326 326 325 325 325 325 325 326 326 327 327 327 326 325
325 325 323 324 325 327 336 338 340 341 339 339 340 341 340 338 337 341 344 341 344 343 341 339 337 337 338 340 336 337 334 334 339 336 336 332 327 330 327 325 329 331 331 333 334 333 331 330 330 331 335 335 335 335 335 335 334 334 334 334 333 331 330 329 328 327 326 326 325 324 324 323 323 322 322 321 322 323 323 324 324 325 326 325 325 325 324 324 323 324 325 325 326 325 325 323 322
324 324 323 326 328 328 337 342 343 340 339 341 343 345 339 337 341 344 346 344 345 343 340 336 336 336 338 340 334 334 335 335 337 337 336 330 331 332 326 326 329 331 331 331 333 333 331 331 330 331 333 333 334 335 335 334 334 334 334 333 333 331 330 329 328 327 326 326 325 324 324 323 323 322 322 322 321 322 322 323 323 324 325 325 325 324 324 323 323 323 323 324 324 324 323 321 320
322 324 323 325 332 335 339 341 343 342 342 343 344 349 344 341 343 344 346 344 341 338 337 333 333 332 332 335 332 331 334 336 333 336 339 330 331 331 326 327 327 329 330 330 331 333 332 331 331 330 331 331 332 334 334 334 334 334 334 333 333 331 331 329 327 327 326 326 325 324 324 323 322 321 321 321 321 321 322 322 323 323 323 323 324 324 324 323 322 322 322 323 323 322 321 320 319
323 323 322 324 334 339 339 337 339 340 343 344 344 349 349 346 342 343 343 339 336 337 338 335 333 331 329 332 334 332 333 335 331 330 334 330 330 329 326 325 326 328 329 330 329 331 333 332 331 330 330 330 331 333 334 334 334 334 334 333 333 332 331 330 328 327 325 325 325 324 323 322 322 321 321 320 319 320 320 321 322 321 322 323 323 324 323 323 322 321 321 322 321 321 320 319 318
321 321 323 325 331 335 337 337 338 340 342 340 341 343 346 345 339 342 339 334 335 337 338 334 331 330 331 332 331 330 330 332 331 329 330 329 329 328 326 324 326 327 328 329 328 330 332 333 332 330 330 330 331 333 334 333 333 333 333 333 333 332 331 331 329 327 324 324 324 323 323 322 320 320 320 320 320 320 321 322 322 322 322 323 323 323 323 322 321 320 320 320 320 320 318 318 318
319 324 331 332 332 334 337 339 340 341 339 334 337 339 338 337 333 338 337 332 333 334 335 334 332 329 328 328 327 327 327 329 329 329 329 328 328 327 326 324 325 326 327 328 328 330 332 333 332 331 331 331 331 333 334 333 333 333 333 333 333 332 331 330 328 326 325 324 323 323 322 320 318 318 319 320 321 321 321 322 321 322 323 323 323 323 322 321 320 319 319 318 318 318 317 317 316
318 326 336 340 340 337 336 339 339 340 339 333 334 335 334 335 334 336 334 331 331 332 335 336 333 329 327 327 329 328 326 329 329 328 327 326 325 325 325 323 325 326 327 328 329 331 332 332 332 332 331 332 332 332 334 333 333 333 333 333 333 332 330 329 327 325 325 323 323 320 318 318 319 320 319 320 321 320 321 321 321 321 322 322 322 322 321 320 320 319 318 318 317 317 316 315 315
319 328 335 339 340 336 337 338 336 337 337 332 329 331 334 334 336 334 330 327 327 333 336 335 332 328 329 330 331 328 326 329 326 325 325 324 324 324 324 324 325 327 327 327 329 330 330 331 332 332 332 332 332 332 333 332 332 332 333 332 333 332 330 329 328 326 325 323 321 319 318 320 320 320 319 319 320 320 320 321 321 321 321 321 322 321 320 320 319 318 318 317 317 316 316 313 313
322 329 334 339 338 336 339 338 337 335 330 328 326 327 330 329 332 331 326 321 321 328 329 332 332 329 328 329 331 327 327 328 324 324 324 324 324 324 325 324 325 327 327 327 328 328 329 329 330 331 331 331 331 331 331 331 332 332 333 332 332 331 330 330 328 327 325 323 321 320 321 320 319 320 319 319 320 320 320 320 320 321 321 321 321 320 320 319 318 318 317 317 316 315 314 313 313
329 333 335 339 339 337 340 341 339 333 327 326 323 322 323 326 328 326 325 319 318 325 325 329 332 331 329 329 333 328 325 326 323 324 324 324 324 324 325 324 325 326 326 326 327 328 328 328 329 329 330 330 329 330 330 330 331 332 333 332 332 331 331 329 328 327 325 324 321 321 321 319 319 319 319 319 319 320 319 320 320 320 320 320 320 319 319 319 318 317 317 316 316 314 311 312 313
330 334 336 338 339 338 337 338 335 329 327 324 321 319 318 322 323 320 321 317 322 330 327 329 328 327 328 330 331 325 323 324 323 323 324 324 322 323 324 324 325 325 326 326 326 327 327 328 328 328 329 329 328 328 329 329 331 332 332 332 331 331 331 329 328 327 326 324 322 321 320 319 319 318 319 319 319 319 319 319 318 318 318 318 319 319 319 318 318 317 317 316 316 312 307 309 312
329 332 335 336 337 336 333 334 333 327 326 324 320 319 316 318 320 319 320 319 326 328 322 326 324 320 323 325 328 328 325 323 323 323 323 323 322 322 322 322 323 323 324 324 325 325 326 327 327 328 328 328 328 328 328 328 330 331 330 330 331 331 330 330 328 327 326 324 321 321 320 319 319 318 319 319 319 319 319 319 317 317 317 317 318 318 318 318 317 317 317 315 315 312 305 306 310
328 334 332 331 333 333 331 331 332 327 323 322 320 319 316 315 318 320 321 319 321 318 316 321 318 316 318 318 327 336 330 322 323 323 322 323 322 320 318 319 319 319 319 319 320 321 323 325 325 326 326 327 327 327 327 327 328 329 329 329 330 331 330 329 328 327 325 322 321 321 319 318 319 318 318 318 318 318 318 318 317 316 316 316 316 317 317 317 317 317 317 315 314 311 304 304 307
324 336 333 330 332 331 331 328 328 327 320 318 316 315 315 313 315 320 320 317 315 314 313 313 313 316 316 314 320 330 327 322 323 322 322 322 321 319 319 319 318 318 318 318 318 319 320 321 323 324 325 326 326 326 326 326 326 327 327 328 328 330 330 329 327 325 323 322 321 320 319 318 318 318 318 317 317 317 317 317 316 315 315 315 315 316 316 316 317 316 316 315 313 309 304 305 307
327 339 332 330 333 330 331 327 324 324 317 315 313 312 313 310 312 316 315 314 314 314 312 310 309 311 313 313 312 314 317 319 320 320 320 318 318 318 319 319 320 320 320 320 319 319 319 319 320 322 323 325 324 324 325 326 326 326 327 327 327 328 328 326 324 323 322 322 321 320 318 318 318 317 317 316 316 315 315 316 315 315 315 314 314 315 315 314 315 315 314 313 312 310 306 307 308
335 338 328 329 331 330 330 323 319 319 316 313 310 310 312 309 310 312 310 311 310 309 310 307 303 302 304 304 301 302 307 311 313 313 310 307 307 308 309 311 313 316 317 320 321 320 320 319 319 319 321 323 323 322 323 325 325 325 326 326 326 326 326 324 323 322 321 321 321 320 318 317 317 317 316 316 316 315 315 315 315 315 314 314 314 314 313 313 312 313 312 312 311 310 308 308 308
335 331 326 330 330 329 328 318 315 316 315 313 309 309 310 309 308 309 310 309 307 308 307 304 301 299 298 298 297 298 302 303 303 302 300 299 299 299 300 301 303 306 309 315 319 321 321 320 320 319 320 321 323 323 323 325 324 324 325 326 326 325 324 323 321 320 320 319 319 319 318 317 317 316 316 315 315 314 314 314 314 314 314 314 314 313 313 312 311 311 311 310 310 309 308 307 308
331 331 327 332 334 330 321 313 314 313 313 313 309 308 309 308 308 308 309 305 303 307 305 301 302 300 297 296 296 296 297 297 297 297 297 297 297 297 298 298 299 301 303 307 312 316 318 320 321 319 319 320 322 323 323 325 325 324 325 326 325 324 323 322 321 320 320 318 318 318 317 317 317 316 316 315 315 313 313 313 313 313 313 314 313 313 312 312 311 309 309 308 308 309 307 305 306
326 329 326 333 333 324 313 311 315 313 313 312 309 309 308 307 308 308 308 304 300 301 301 300 300 298 296 295 294 294 295 295 296 296 296 297 297 297 298 298 299 300 301 303 306 310 312 316 320 321 320 319 321 323 323 325 325 325 325 325 325 324 323 322 321 320 320 319 318 318 317 317 316 316 315 315 314 313 312 312 313 313 313 313 313 313 312 311 310 309 308 307 307 308 307 304 304
319 323 327 332 323 314 312 312 316 314 313 313 310 310 308 306 305 305 308 307 301 297 297 298 297 295 295 294 293 294 294 294 295 295 296 296 297 297 298 299 300 301 302 303 305 307 308 310 315 320 322 321 320 321 323 324 325 325 324 324 324 323 322 321 320 320 320 319 319 318 318 317 316 316 315 315 314 312 311 311 312 313 313 312 312 312 311 311 309 308 307 305 305 305 304 304 304
316 318 322 325 316 310 311 313 316 314 312 314 311 309 308 305 301 300 304 305 299 297 297 296 295 294 293 293 293 293 293 293 294 295 295 296 296 297 297 298 299 300 301 302 304 305 307 309 311 317 322 323 321 320 322 323 324 324 324 324 323 323 322 321 320 320 320 319 319 318 317 317 316 315 315 315 313 312 311 310 312 312 312 312 312 311 310 310 308 308 307 302 300 300 300 303 304
314 315 314 317 313 308 309 311 313 311 310 312 310 308 307 303 299 297 299 299 297 297 296 295 294 293 293 292 292 292 292 292 293 294 294 295 295 295 296 296 298 299 299 300 302 303 305 308 310 314 318 322 322 321 321 321 322 323 324 323 323 322 321 321 321 320 320 319 319 318 317 317 316 315 314 314 313 311 310 310 311 311 311 311 311 310 309 308 308 307 305 297 294 295 296 299 302
310 314 314 312 309 308 308 308 308 309 309 309 308 308 307 305 301 298 297 297 297 296 295 294 293 292 292 292 292 292 292 292 292 292 293 293 293 293 293 294 295 296 296 297 299 301 302 304 307 312 315 318 321 322 322 321 321 322 322 322 322 322 321 321 320 320 320 319 319 318 317 316 315 315 314 314 312 311 310 309 310 310 310 310 310 309 308 308 308 305 299 293 291 292 293 295 298
310 310 312 309 308 308 308 306 306 307 306 308 308 307 306 305 301 298 297 297 296 295 294 293 292 292 292 291 291 291 291 291 291 291 292 292 292 291 291 292 292 293 293 294 295 298 299 300 304 308 312 314 317 319 321 321 321 320 321 321 322 321 321 321 320 320 320 319 319 318 317 316 315 315 314 313 312 310 310 309 309 310 310 309 309 308 308 307 307 305 298 293 292 291 291 292 293
309 307 308 308 308 307 307 307 306 305 306 308 308 305 301 299 300 298 297 296 295 294 293 292 292 291 291 291 291 290 290 290 291 291 291 291 290 290 290 290 291 291 291 291 293 295 296 298 301 304 307 311 313 315 317 319 320 321 320 321 321 320 320 320 320 320 319 319 319 318 317 316 315 315 314 313 312 311 310 309 308 309 309 308 308 307 307 306 305 305 301 297 293 291 291 291 291
307 307 308 308 308 306 306 306 306 305 305 309 308 304 300 299 302 300 296 296 294 293 293 292 292 291 291 290 290 290 290 290 290 290 290 290 290 289 289 289 289 290 290 290 291 292 295 298 299 301 304 307 310 313 313 315 317 319 320 320 320 320 319 318 318 318 318 318 318 318 317 316 315 315 314 313 313 312 310 309 307 308 308 307 307 306 306 305 303 302 301 298 294 292 291 290 291
307 307 308 310 309 307 307 306 305 304 304 309 308 303 301 301 302 298 295 295 293 293 292 292 291 291 291 290 290 290 289 289 289 289 289 289 289 289 288 288 288 289 288 289 289 290 294 296 297 299 302 304 308 310 311 312 314 315 317 318 319 319 318 318 317 316 316 316 315 315 315 315 315 314 314 313 313 312 310 309 307 306 306 306 306 306 306 304 302 300 299 297 295 294 292 290 290
307 308 307 311 312 309 310 306 304 304 304 306 306 305 303 300 298 296 295 294 293 293 292 292 291 291 290 290 289 289 289 289 289 289 289 289 289 288 288 288 287 288 288 288 288 289 291 293 295 297 300 302 305 306 308 309 311 312 314 315 316 317 318 317 316 316 316 314 313 312 312 312 312 313 313 313 313 312 310 309 307 305 305 306 305 305 305 304 303 301 299 298 296 294 293 291 290
307 308 306 310 313 314 310 305 305 304 304 305 305 309 304 297 296 296 295 294 293 293 292 292 291 291 290 290 289 289 289 288 288 288 288 288 288 288 287 287 287 287 286 287 287 288 288 290 293 295 298 300 302 304 305 306 307 308 310 312 313 314 315 316 314 315 315 315 314 313 312 311 311 311 310 310 311 311 310 310 308 306 305 305 304 305 305 304 303 302 300 299 297 295 294 292 290
308 307 311 311 310 321 315 306 307 304 305 306 304 310 305 296 296 296 295 293 293 293 292 292 291 291 290 290 289 289 288 288 288 287 287 287 287 287 287 286 286 286 285 285 286 286 286 288 291 293 295 297 299 301 301 302 304 305 307 309 310 310 312 312 313 313 313 314 314 313 313 312 310 310 309 308 309 309 309 309 308 306 305 305 304 305 305 304 304 303 301 300 299 296 294 293 291
313 308 317 316 309 323 319 306 309 305 305 306 304 309 304 296 295 295 294 293 293 293 292 292 291 291 290 290 289 289 288 287 287 287 286 286 286 286 286 285 285 285 284 284 285 285 285 286 288 290 292 294 296 297 298 299 301 303 304 305 306 307 309 309 310 310 310 311 311 311 312 312 311 310 309 308 308 307 307 307 306 305 305 305 304 304 304 304 304 303 302 301 299 297 294 293 291
321 310 316 318 310 317 315 306 310 308 305 305 306 309 301 296 296 294 294 293 293 293 292 292 291 291 290 289 289 288 288 287 287 286 286 286 285 285 285 285 284 284 284 283 283 284 284 285 285 287 289 290 291 294 296 297 298 300 302 303 302 303 305 305 306 308 308 308 308 308 309 310 310 310 309 309 308 308 307 306 306 305 305 305 305 304 304 304 304 303 302 301 300 297 295 293 292
320 312 312 317 313 312 314 313 309 308 308 305 307 307 299 296 295 294 294 293 293 293 292 292 291 291 290 289 289 288 288 287 287 286 286 285 285 285 285 284 284 284 283 283 283 283 283 283 283 284 285 287 288 289 291 293 295 297 298 300 300 300 301 302 302 304 305 306 306 305 305 306 307 307 308 309 309 308 307 307 306 306 305 305 304 304 304 304 304 303 302 302 300 297 295 294 293
310 312 311 313 315 310 311 315 309 307 308 307 306 304 297 295 295 294 294 293 293 293 292 292 291 291 290 289 289 288 288 287 287 286 286 285 285 285 285 284 284 284 283 283 283 283 282 282 282 283 283 285 286 287 288 289 291 293 294 296 298 298 298 299 299 299 300 302 302 302 303 303 304 304 305 306 307 307 307 307 307 307 306 305 304 303 304 303 303 302 302 301 300 297 295 294 293
306 311 313 312 312 308 308 311 312 308 307 309 308 303 296 295 295 294 294 293 293 293 292 292 291 291 290 290 289 288 288 287 287 287 286 286 285 285 285 284 284 284 284 283 283 283 283 282 282 282 282 282 284 285 286 287 288 289 289 290 292 293 294 295 296 296 296 298 298 299 300 300 301 302 302 302 303 305 305 306 306 306 306 305 304 304 304 303 303 302 302 301 300 298 295 294 293
306 308 311 311 309 308 307 308 310 308 307 308 304 300 296 295 295 294 294 293 293 293 292 292 291 291 291 290 290 289 288 288 287 287 286 286 286 285 285 284 284 284 284 283 283 283 283 283 282 282 281 282 282 282 283 284 284 285 285 285 286 288 288 289 291 292 293 295 296 296 297 297 298 299 299 300 300 301 302 303 304 304 305 305 305 304 304 303 303 303 302 302 301 299 296 294 292
306 307 307 309 309 309 308 306 308 308 308 304 298 298 297 295 295 294 294 294 293 293 292 292 292 291 291 291 290 290 289 288 287 287 287 286 286 285 285 284 284 284 284 283 283 283 282 282 282 282 282 282 281 281 281 281 281 282 282 283 284 285 285 285 286 287 289 291 293 294 294 295 296 296 296 297 298 298 299 300 301 302 303 303 303 303 302 302 301 301 301 301 301 298 296 295 293
307 307 307 309 311 311 311 309 308 309 308 303 297 299 297 294 295 295 295 295 294 294 293 292 292 292 291 291 290 290 289 289 287 287 287 286 286 285 285 285 284 284 284 283 283 283 282 282 282 282 282 282 281 281 281 281 281 281 281 281 282 283 283 284 284 284 286 288 289 290 291 292 293 293 293 294 295 296 297 298 298 299 300 301 302 302 302 301 300 299 298 299 298 296 295 294 293
309 307 307 310 310 309 313 312 309 308 308 303 300 301 297 294 295 294 295 295 294 294 293 293 292 292 291 291 290 290 290 289 288 287 286 287 286 286 285 285 284 284 284 283 283 283 282 282 282 281 281 281 281 281 280 280 280 281 281 281 281 282 282 283 284 284 285 286 286 286 287 288 290 291 291 291 292 293 294 295 296 297 297 298 299 300 301 301 300 300 298 298 296 295 293 293 293
316 312 307 311 312 308 309 310 307 307 307 303 302 304 300 295 295 295 294 294 294 293 293 293 292 292 291 291 291 290 290 289 289 288 287 286 286 286 285 285 285 284 284 284 283 283 283 282 282 282 281 281 281 280 280 280 280 280 280 280 280 281 281 282 282 282 282 282 283 283 284 284 285 287 288 289 290 290 291 292 293 294 295 296 296 297 298 298 299 299 298 297 296 295 294 293 293
315 314 310 312 311 306 306 307 306 305 305 303 303 308 305 296 294 295 294 294 294 293 293 293 292 292 292 291 291 290 290 289 288 288 287 287 286 286 286 286 286 286 285 285 285 284 284 283 283 283 282 281 281 281 280 280 279 279 279 279 279 279 279 279 279 279 279 279 280 281 282 282 282 283 284 285 287 287 288 289 289 290 292 293 294 294 295 295 296 296 296 296 295 295 295 293 292
307 309 308 308 306 304 305 304 304 306 306 303 303 306 306 298 295 295 294 294 294 293 293 292 292 292 292 291 291 290 290 289 289 288 287 287 287 287 287 287 286 286 285 285 285 284 284 284 283 283 283 282 281 281 280 280 279 279 278 278 278 278 278 277 277 278 277 277 278 279 280 281 281 282 282 282 283 284 285 286 286 287 288 289 291 292 292 293 294 294 294 294 294 294 294 293 292
304 305 305 306 304 304 304 302 302 306 305 304 304 302 304 303 298 295 295 295 295 294 293 292 292 292 292 291 291 291 290 291 291 289 287 287 287 287 287 287 286 286 285 285 284 283 283 283 283 282 282 282 282 281 281 280 280 279 278 278 278 277 277 277 277 277 277 277 277 278 278 279 280 280 280 281 281 282 283 284 284 285 285 286 287 289 290 291 291 292 292 293 293 293 293 292 293
305 305 304 304 303 303 303 302 303 304 302 305 307 301 303 306 298 294 295 295 295 295 293 293 292 292 292 292 292 291 291 290 289 289 288 287 287 287 287 286 286 285 285 284 284 283 283 283 282 282 282 282 282 281 281 281 280 280 279 278 277 277 277 277 277 276 276 276 276 276 277 277 278 279 279 279 279 280 280 281 282 283 283 284 285 285 287 288 289 290 291 291 292 292 292 292 292
304 303 302 304 304 303 302 302 304 304 304 308 308 302 304 307 299 294 296 296 295 295 293 293 292 292 293 293 292 292 291 291 288 287 288 287 287 287 286 286 286 285 285 284 284 283 283 283 282 282 281 281 281 281 281 280 280 280 279 278 277 277 277 277 276 276 276 276 276 276 276 276 276 277 277 278 278 278 279 279 279 280 281 281 282 283 284 285 286 287 288 290 290 291 292 292 291
303 304 306 306 305 305 304 305 305 305 309 312 308 302 302 305 301 295 296 297 296 295 294 293 292 292 293 293 293 292 292 292 290 287 287 288 287 287 286 286 286 285 285 284 284 283 283 283 282 282 281 281 281 281 281 280 280 280 279 279 278 277 277 277 276 276 276 275 275 275 275 275 275 275 275 276 276 277 277 277 278 278 279 280 280 281 282 283 284 285 286 287 289 290 290 291 291
304 306 306 304 305 308 309 311 309 307 311 310 304 300 300 305 305 297 296 298 296 295 294 293 293 293 293 293 293 292 292 292 292 289 287 287 287 287 286 286 286 285 285 284 284 283 283 283 283 283 282 281 281 280 280 280 280 279 279 279 278 277 277 276 276 276 275 275 275 274 275 275 275 275 275 275 275 275 276 276 276 277 277 278 278 279 280 281 282 283 284 285 287 288 289 290 290
305 305 305 307 309 309 309 311 309 308 310 305 299 298 299 303 303 297 297 298 295 295 294 293 293 293 293 293 292 292 293 292 293 291 287 286 287 287 286 286 286 285 285 285 284 283 283 283 283 283 282 282 281 281 281 280 280 279 279 279 278 278 277 277 276 276 275 275 275 274 274 274 274 274 274 274 274 274 274 274 275 275 276 276 277 278 279 280 280 281 282 283 285 286 287 289 289
303 303 305 309 307 304 306 307 303 303 306 302 298 298 301 303 300 296 296 296 294 294 293 293 293 293 293 293 292 292 293 292 293 291 287 285 287 287 287 287 286 286 285 284 284 284 283 283 283 283 282 282 282 281 281 280 280 279 279 278 278 278 277 277 277 276 276 275 275 275 274 274 273 273 273 273 273 274 273 273 273 274 275 275 275 276 277 278 279 280 281 282 283 284 285 287 288
302 301 302 306 305 302 303 305 302 302 304 302 298 299 304 306 299 294 295 294 292 293 293 292 292 292 292 292 291 292 292 292 292 291 287 286 287 287 286 287 286 286 285 284 284 284 283 283 283 283 282 282 282 281 281 280 280 280 279 279 278 278 277 277 277 276 276 276 275 275 275 274 273 273 273 273 273 273 273 273 273 273 273 274 275 275 276 277 278 278 280 280 282 283 283 285 286
301 301 302 304 304 303 303 304 301 300 302 303 304 302 302 300 295 292 294 293 292 293 292 292 292 291 291 291 291 291 291 291 291 291 288 286 287 287 286 286 286 286 285 284 284 284 283 283 283 283 282 282 282 281 281 280 280 280 279 279 278 278 277 277 277 276 276 276 275 275 275 275 274 273 273 272 272 273 273 272 272 272 273 273 274 274 275 275 276 277 278 279 280 281 282 283 284
301 302 303 301 299 300 302 302 301 300 300 302 304 302 299 297 295 293 293 293 293 293 292 292 292 291 291 291 291 291 291 290 291 291 287 286 287 287 286 286 285 285 285 284 284 283 283 283 282 282 282 282 282 281 281 280 280 280 279 279 278 278 278 277 277 277 276 276 275 275 275 275 274 274 273 273 272 272 272 272 272 272 272 272 273 273 274 274 275 276 276 277 278 279 280 281 282
302 302 302 300 300 302 302 301 304 304 302 301 302 300 298 299 297 294 292 293 294 293 292 292 292 292 291 291 291 290 290 290 290 289 286 286 287 286 286 286 285 285 285 284 283 283 283 282 282 282 282 282 281 281 281 280 280 280 279 279 279 278 278 278 277 277 276 276 275 275 275 275 274 274 273 273 273 272 272 271 271 271 272 272 272 272 273 273 274 274 275 276 277 278 279 280 281
300 299 300 300 301 304 304 302 304 303 300 300 303 301 297 300 303 299 297 296 294 293 293 292 292 292 290 290 290 290 290 290 290 290 287 286 287 286 285 285 285 285 284 283 283 283 282 282 282 282 281 281 281 281 280 280 280 280 280 279 279 278 278 278 278 277 277 276 276 275 275 274 274 274 274 273 273 272 272 271 271 271 271 271 271 272 272 272 273 273 274 274 275 277 278 279 280
302 302 302 303 303 302 303 302 302 301 298 298 302 301 298 301 305 303 301 298 294 292 293 292 292 292 290 290 291 292 292 291 292 292 288 285 286 285 285 285 285 284 284 284 283 283 282 282 281 281 281 281 281 280 280 280 280 280 280 279 279 278 278 278 278 277 277 276 276 275 275 274 274 274 273 273 273 272 272 271 271 270 270 270 270 271 271 271 272 272 273 273 274 276 277 278 279
302 304 304 304 304 301 301 300 298 299 299 299 301 299 297 299 300 299 299 298 294 293 293 292 291 291 290 291 292 293 293 291 292 291 286 284 285 285 284 285 285 284 284 283 283 283 282 281 281 281 281 280 280 280 280 280 280 280 279 279 279 278 278 278 278 277 277 276 276 275 275 274 274 273 273 273 273 272 271 271 270 270 270 270 270 270 270 270 271 271 272 272 274 275 276 276 277
300 303 300 300 302 300 300 299 298 298 298 299 298 296 296 296 295 296 299 297 293 292 293 292 291 291 291 292 293 292 291 291 291 288 284 284 285 284 284 284 284 284 284 283 283 282 282 281 281 281 280 280 280 280 280 280 280 279 279 279 279 279 278 278 278 277 277 276 276 275 275 274 274 273 273 273 272 272 271 271 270 270 269 269 269 269 269 269 270 270 271 272 273 274 274 274 275
Wind_Speed
13 12 12 13 13 11 7 1 2 2 2 0 3 1 4 3 2 1 1 0 0 2 4 3 1 1 1 2 4 4 3 3 4 3 2 4 3 1 3 7 9 8 7 9 12 14 17 21 23 21 19 18 21 21 19 18 19 22 22 23 24 27 27 25 25 23 22 21 20 19 19 19 18 17 16 15 15 15 15 14 14 14 14 15 16 15 15 15 15 14 14 13 11 11 13 16 15
12 11 11 13 10 4 2 2 3 2 3 2 3 2 4 1 1 3 3 3 3 4 3 2 2 2 3 3 3 2 1 4 5 3 3 3 2 1 1 4 8 7 4 7 12 14 16 19 22 22 20 19 21 20 19 20 22 22 23 23 25 28 27 26 25 24 23 22 22 21 20 19 18 17 16 16 16 15 15 14 14 14 14 15 15 16 16 16 16 15 15 14 12 12 13 16 15
11 11 12 12 6 2 1 3 2 1 2 2 4 3 2 0 3 5 6 6 6 4 1 1 1 2 4 5 3 2 2 4 3 2 2 2 1 1 1 2 5 6 4 6 10 13 15 17 20 22 22 21 20 21 20 21 22 21 23 23 24 28 27 26 26 25 25 25 24 22 21 20 18 18 17 17 17 17 15 15 15 15 16 16 15 16 17 16 17 16 15 15 13 12 13 17 16
9 11 13 9 3 2 3 2 1 4 2 3 3 4 2 4 6 6 7 6 6 3 2 1 1 1 2 3 1 1 3 3 2 2 0 2 2 1 2 1 2 4 4 4 7 12 14 16 18 21 23 22 21 22 22 22 21 21 23 22 24 28 28 28 29 28 26 26 25 23 22 20 19 18 19 20 20 19 17 17 16 16 16 17 17 16 17 17 18 17 16 15 14 13 13 16 15
8 11 9 2 2 1 2 1 1 3 3 3 2 5 4 5 6 5 4 4 4 3 3 2 2 2 1 0 1 1 3 2 2 3 3 3 3 1 2 2 2 2 5 4 6 10 14 14 15 19 22 22 22 23 22 22 20 19 21 22 23 27 29 28 29 28 25 25 24 23 22 20 18 17 18 19 19 18 17 17 15 15 15 16 17 16 16 17 18 18 16 16 15 13 13 14 13
10 9 3 1 1 1 2 0 1 2 4 4 2 5 5 5 6 5 3 2 2 1 2 2 1 1 1 1 1 2 3 1 1 4 3 3 1 1 1 2 2 1 4 4 7 9 12 13 14 17 21 21 23 23 23 23 22 21 22 23 24 28 31 31 31 28 25 25 24 22 21 20 20 18 17 17 18 18 17 18 16 15 16 16 17 16 17 17 17 18 16 17 16 13 14 14 13
9 6 2 1 1 1 3 2 3 3 4 4 4 4 4 3 4 5 4 2 3 3 3 1 2 3 1 2 1 1 1 1 2 3 3 1 1 1 1 2 1 0 2 4 5 6 10 12 12 16 20 21 22 23 23 23 23 22 22 23 26 29 31 31 30 28 26 27 25 23 21 19 20 20 19 18 18 18 18 18 17 16 16 16 17 17 17 17 17 17 16 17 16 13 13 14 13
6 2 1 3 1 2 2 2 3 3 3 3 3 3 4 4 4 5 3 2 1 0 2 1 2 4 2 3 1 3 4 3 2 3 3 1 1 1 2 2 1 2 3 4 3 4 8 9 11 15 18 20 21 21 21 22 21 21 21 22 24 27 29 27 26 28 28 28 28 23 20 19 21 21 20 19 18 19 19 18 18 17 16 16 17 17 17 18 17 16 16 17 16 13 12 13 13
2 0 1 3 1 2 1 2 3 3 4 3 0 1 4 5 3 4 3 3 2 2 0 3 3 2 3 4 2 5 4 5 4 3 2 1 1 1 2 3 2 2 4 4 3 3 5 6 9 13 15 18 19 19 18 20 22 21 19 22 25 26 29 27 24 27 27 28 26 21 21 21 21 21 20 20 19 19 19 19 19 18 17 17 17 18 17 17 18 17 16 16 16 14 12 14 14
2 1 1 1 1 2 3 3 3 3 4 3 1 1 3 3 2 4 4 4 2 2 1 2 3 2 2 1 2 3 1 5 3 2 3 2 1 2 3 5 3 2 4 5 5 5 5 4 6 9 12 13 15 15 15 17 22 22 20 23 26 26 30 29 26 26 26 26 24 23 23 21 20 21 20 20 20 19 19 19 19 19 18 18 18 18 18 17 18 17 16 15 15 13 12 13 15
2 2 2 2 3 1 3 3 4 3 5 3 3 5 3 3 4 4 4 4 2 3 0 1 2 2 1 2 3 1 4 7 4 3 3 2 2 2 2 4 2 2 4 5 7 7 6 5 5 7 9 11 13 13 12 14 18 22 22 25 27 28 30 30 28 27 25 25 26 26 24 22 21 20 20 21 20 20 19 20 19 19 19 18 18 18 19 18 18 18 17 16 15 13 13 15 17
2 3 3 3 1 2 3 3 4 2 5 4 2 5 1 3 5 3 3 4 1 4 1 2 2 1 1 3 3 2 4 7 5 3 3 2 2 1 2 3 1 2 4 5 7 7 7 6 6 7 9 11 13 13 13 14 17 22 25 26 29 30 30 31 30 29 27 26 29 27 24 23 21 21 21 20 19 19 20 20 18 18 18 17 17 17 19 19 18 19 18 17 15 14 16 17 18
2 1 4 1 3 3 2 3 3 0 3 2 2 4 2 4 3 5 4 4 2 5 1 4 3 2 0 3 3 4 3 5 4 4 3 2 3 2 2 4 4 4 5 7 9 9 9 9 8 8 9 11 13 14 14 15 17 21 26 28 31 33 33 33 33 31 30 28 29 28 26 23 21 21 20 19 19 19 19 19 18 18 18 18 18 17 17 18 18 19 19 18 15 14 18 19 18
2 2 4 1 1 1 2 2 3 0 1 3 2 4 2 3 2 4 6 4 1 2 2 3 4 2 1 3 4 5 3 3 5 4 2 2 2 3 4 5 6 7 7 8 9 10 11 11 11 10 11 12 14 14 15 16 17 19 22 28 31 36 37 33 33 33 31 28 28 28 26 24 22 20 19 19 18 18 18 18 18 19 18 19 19 18 18 17 18 19 19 18 15 16 19 19 18
3 1 4 1 2 1 2 3 1 3 2 2 2 2 3 2 1 4 5 3 0 1 1 2 3 1 1 3 4 6 1 6 6 2 1 2 4 5 6 6 6 8 8 9 8 9 10 12 13 13 13 13 14 14 15 17 18 19 20 24 25 31 38 34 31 29 28 26 27 27 26 24 23 21 20 20 18 18 18 18 18 18 17 18 18 18 19 19 19 19 18 18 15 18 21 20 19
2 3 4 1 1 1 3 3 1 3 3 3 4 2 4 3 2 3 0 2 1 4 5 4 5 5 2 5 9 12 12 11 8 6 7 9 10 10 9 9 9 9 9 10 8 8 9 11 12 13 14 14 14 14 15 16 16 19 19 20 21 19 26 29 31 29 27 27 26 26 25 24 24 23 23 21 20 20 20 20 19 18 18 18 18 17 17 19 19 17 17 18 17 19 24 23 21
3 4 3 0 2 2 3 3 1 2 3 3 5 3 5 3 5 1 1 7 4 4 6 4 10 13 8 10 17 23 24 21 18 17 20 22 21 21 21 20 17 15 15 13 11 9 9 9 11 13 14 13 13 15 15 15 15 17 15 12 14 13 16 23 28 29 27 27 25 24 23 24 25 25 24 23 23 23 22 22 20 19 19 18 20 17 15 15 16 15 15 19 19 18 22 23 22
3 3 2 2 3 3 4 4 4 3 3 3 3 1 6 1 4 1 3 8 7 6 7 6 10 14 15 19 24 28 28 27 28 26 27 27 25 25 25 27 27 26 22 17 14 12 11 10 10 12 14 13 13 14 15 14 12 12 10 10 14 15 18 23 27 27 27 25 24 24 22 24 27 27 27 26 25 25 25 24 21 20 20 19 20 20 18 14 13 15 15 17 17 15 17 20 20
3 3 2 3 5 5 4 3 4 2 3 4 3 3 3 3 3 2 4 6 10 9 8 7 9 12 17 24 27 29 30 31 30 28 27 24 24 23 23 26 28 30 28 25 20 16 15 14 13 12 13 13 13 12 14 13 10 9 8 13 14 16 20 25 26 27 28 26 24 25 22 24 29 30 29 29 27 27 26 25 23 22 21 20 19 19 20 18 16 15 15 15 16 16 17 19 19
2 3 2 6 5 4 4 3 4 2 4 5 3 4 2 1 1 2 4 6 12 9 7 7 8 9 11 16 22 26 28 29 28 27 25 24 23 22 22 24 26 27 28 28 26 23 22 19 16 15 12 12 12 11 12 12 11 10 10 14 15 18 22 24 25 26 29 27 26 26 24 27 32 31 30 29 27 27 27 26 25 24 23 22 21 20 19 19 18 16 16 16 18 19 20 21 20
1 4 5 6 4 3 5 6 5 3 4 6 2 1 3 2 5 4 4 6 8 5 5 6 5 6 7 10 17 22 24 26 26 27 25 24 24 23 22 22 23 25 27 30 31 30 29 25 19 16 14 12 12 11 10 12 13 13 14 17 19 21 23 25 27 28 29 30 28 27 27 30 32 31 31 30 27 27 27 27 26 25 24 24 24 23 21 19 19 20 18 15 17 20 22 23 22
1 3 5 6 4 3 6 6 5 2 3 4 2 4 2 2 7 7 8 8 3 4 5 6 5 5 7 9 15 20 22 23 24 25 24 24 24 25 25 25 26 28 31 32 32 32 31 28 23 15 15 14 12 11 9 10 12 15 17 20 22 23 24 27 29 29 30 31 29 28 29 31 32 31 31 30 28 27 27 28 28 27 26 26 26 25 24 23 22 21 17 13 15 19 21 23 22
3 4 4 5 4 3 4 2 2 2 3 2 2 2 3 8 7 6 11 9 4 6 5 6 7 7 11 14 17 18 18 19 21 22 22 22 24 25 26 26 28 29 30 32 31 32 33 32 28 19 12 14 14 11 9 8 9 14 18 20 23 24 26 28 29 29 29 30 29 29 30 32 33 32 31 30 29 28 28 29 29 28 28 28 27 27 26 25 25 21 15 12 15 18 19 20 21
4 4 4 4 4 4 3 1 2 3 2 2 2 4 4 9 7 4 10 7 5 7 6 8 9 12 17 18 17 16 17 18 20 21 22 23 23 24 25 27 27 27 29 32 32 32 35 35 32 25 16 13 14 14 10 8 8 10 14 18 22 25 27 30 30 29 30 30 29 30 32 33 34 33 32 31 30 29 29 29 30 29 29 29 28 29 28 27 26 21 15 14 15 17 18 19 20
3 4 3 2 3 4 5 2 2 3 2 1 5 6 4 9 9 6 7 7 6 6 7 8 10 16 19 17 16 16 17 19 20 21 23 24 24 27 29 29 28 29 31 31 31 32 34 35 34 30 23 19 15 12 12 10 8 8 10 15 20 22 25 29 30 31 32 31 31 32 33 34 34 34 34 33 31 30 29 28 31 31 30 30 29 29 29 28 26 22 18 16 16 18 18 20 21
3 4 3 3 5 6 5 5 4 4 3 4 7 7 6 7 8 6 5 6 5 6 8 8 11 16 15 13 15 17 17 19 21 21 23 25 27 30 31 31 30 29 30 30 32 32 33 34 35 34 30 26 21 14 10 10 11 9 9 11 16 21 21 24 29 32 33 32 32 34 35 36 36 36 35 35 33 31 30 30 31 33 32 31 31 30 30 28 26 24 21 18 18 19 19 20 22
3 2 4 5 6 6 4 6 6 1 3 6 8 7 4 2 4 5 3 4 5 8 11 9 12 14 13 12 13 17 19 20 21 22 24 27 28 29 29 31 30 28 30 32 32 32 32 34 35 35 33 30 26 22 18 12 10 11 10 9 12 18 19 18 21 25 29 31 33 37 37 37 38 37 37 36 35 33 32 32 33 34 34 33 32 31 30 29 26 25 23 20 19 20 20 21 22
3 3 6 8 7 8 6 7 7 2 2 5 10 6 4 7 5 5 3 4 5 11 12 10 12 11 11 11 11 16 19 20 22 23 24 25 25 26 28 30 29 28 30 31 30 31 33 34 35 35 35 33 31 28 25 21 15 11 10 11 10 12 14 13 14 16 22 25 25 30 35 37 37 38 38 38 36 35 35 34 34 36 36 35 33 32 31 29 27 25 23 21 20 19 19 21 22
3 3 5 9 8 7 7 5 4 5 3 5 10 4 5 7 4 6 5 5 8 12 11 10 11 9 9 9 9 13 17 20 22 23 23 23 24 25 27 28 28 28 28 29 30 32 33 34 35 35 34 33 33 31 30 28 23 19 12 9 9 10 10 11 13 14 17 19 17 19 25 30 34 36 37 38 37 36 36 35 36 37 37 36 33 32 32 30 29 27 25 24 22 21 21 22 23
3 2 1 5 7 6 6 4 2 5 2 4 7 1 2 4 3 4 3 4 10 13 9 8 8 7 8 8 8 10 15 20 21 22 23 23 24 25 27 28 29 29 29 31 32 33 33 34 36 35 34 33 33 32 31 31 29 27 22 13 10 10 10 11 13 13 14 16 19 20 19 21 27 31 31 33 35 36 36 36 37 38 38 36 35 34 33 32 31 29 27 26 25 24 23 23 24
2 2 1 2 2 5 8 4 5 5 1 1 5 3 4 2 3 4 2 3 11 12 7 7 7 6 7 7 8 8 12 18 20 22 23 24 24 25 26 28 29 30 31 33 32 33 34 36 37 36 35 34 32 32 31 31 30 30 28 23 18 15 13 13 14 14 15 14 15 18 20 19 19 24 25 24 29 33 34 36 37 38 38 36 35 35 34 33 32 31 29 28 27 25 25 24 24
2 0 3 3 1 5 8 4 4 3 1 4 5 3 3 3 2 3 3 4 11 11 6 7 7 7 7 7 7 6 9 15 20 22 23 23 24 24 25 27 29 30 32 33 32 33 36 37 38 39 37 36 34 32 31 31 30 29 28 27 24 20 17 14 13 13 14 14 14 14 16 18 17 19 21 22 24 26 28 30 32 33 34 36 36 36 35 34 33 31 30 29 28 26 25 24 24
3 2 2 2 2 3 5 3 2 2 3 3 3 3 2 3 3 3 4 6 10 10 7 7 7 7 7 6 6 6 7 11 16 21 23 23 23 24 24 26 27 29 30 32 33 34 35 37 39 40 40 39 37 34 31 30 29 28 27 26 27 25 22 20 18 13 12 13 14 16 14 15 16 15 17 21 23 24 25 26 27 28 31 36 37 37 37 36 35 33 31 29 28 27 26 25 25
4 2 1 3 2 2 3 4 4 3 4 1 4 4 4 3 5 4 4 6 9 9 7 7 6 6 6 5 6 6 6 7 11 17 21 22 23 23 24 25 27 29 30 31 33 34 34 36 38 40 40 39 39 37 35 32 29 27 27 25 26 27 25 24 24 19 16 15 15 18 17 15 15 14 14 15 18 20 23 25 27 28 29 33 35 36 37 36 36 34 33 31 29 28 27 27 26
1 2 1 3 3 3 3 4 3 1 1 2 5 6 5 4 5 4 4 5 8 8 6 6 6 6 5 5 5 6 6 6 9 15 19 21 22 23 24 25 27 29 31 32 34 35 35 36 37 39 40 40 39 38 37 36 33 30 28 26 25 27 27 25 25 25 22 19 18 19 19 18 17 16 16 15 14 15 16 19 24 27 27 28 31 33 34 35 35 34 33 31 30 29 28 27 27
3 4 4 3 4 4 5 5 6 3 2 2 4 6 6 5 4 5 4 5 8 7 6 5 5 5 5 5 5 5 6 6 9 15 18 20 22 23 24 25 26 29 31 33 35 38 38 38 38 40 41 40 40 39 39 39 38 36 34 32 28 27 28 26 25 26 25 23 22 21 20 20 19 17 18 18 17 16 14 14 16 20 24 27 30 32 34 36 36 36 34 32 31 30 29 28 26
2 2 4 4 4 5 6 5 6 2 3 2 3 8 7 5 5 5 4 5 7 6 6 5 4 5 4 5 5 5 5 5 10 14 16 19 21 22 24 25 27 29 32 34 36 38 38 38 40 40 40 41 42 40 39 38 38 36 35 34 30 26 26 27 26 28 27 25 24 23 22 22 21 19 19 19 19 19 17 15 14 15 18 23 30 34 35 36 37 37 36 34 33 32 31 29 27
1 3 3 3 4 5 6 4 6 3 1 2 5 9 5 4 4 3 4 6 5 5 5 5 5 4 4 4 5 4 3 4 8 12 14 16 18 20 22 24 26 27 29 31 32 33 35 37 38 38 38 40 41 38 36 35 33 32 29 28 27 23 24 25 25 28 28 25 25 24 24 24 23 22 21 20 19 19 19 18 16 14 15 17 24 30 31 30 32 34 35 35 34 33 32 31 30
1 1 1 3 3 3 6 4 6 5 2 1 4 7 3 2 3 3 3 5 4 4 5 5 5 5 4 4 4 3 3 4 6 8 11 13 15 18 20 22 23 24 25 28 29 30 33 34 34 35 36 38 38 37 35 32 31 30 27 26 26 22 23 24 23 25 27 25 25 25 25 25 24 24 24 23 20 19 19 19 18 16 15 15 19 25 28 29 30 31 33 34 32 31 30 30 32
0 0 0 3 4 1 3 4 6 5 1 3 6 5 2 1 3 3 3 3 5 5 5 4 4 5 4 4 3 3 3 3 4 5 8 11 12 14 16 18 19 21 23 25 26 27 28 29 30 31 33 34 36 36 34 32 30 31 29 27 27 24 24 27 26 27 29 27 27 27 26 26 25 24 24 24 23 22 20 19 18 17 17 16 16 19 23 27 29 31 33 34 31 28 28 29 31
3 3 3 3 4 2 4 3 6 6 4 3 7 3 2 3 3 2 2 4 5 4 5 5 4 4 4 4 3 3 3 3 3 3 4 6 8 10 13 15 18 21 23 24 25 25 26 26 28 29 30 31 32 34 33 33 33 34 33 32 32 31 30 32 33 33 33 32 30 29 27 27 26 25 24 24 24 24 22 21 19 16 16 16 16 16 17 20 23 28 32 34 33 30 29 29 29
4 3 5 5 4 2 3 4 5 4 4 0 5 1 4 2 4 4 3 3 3 3 4 4 3 3 4 3 2 2 2 2 1 1 2 6 9 11 13 15 17 19 20 20 21 22 23 25 27 28 29 30 31 32 32 33 33 33 35 34 34 33 31 31 31 30 31 31 29 28 26 25 26 26 25 25 24 24 23 22 22 19 16 15 15 16 16 16 17 21 25 29 33 34 29 25 27
4 3 4 5 4 1 3 3 3 1 1 2 2 3 3 2 4 6 5 4 4 3 3 4 3 3 3 3 3 3 2 1 1 2 4 7 8 8 9 10 11 11 11 12 13 15 17 19 22 24 26 28 29 30 31 32 32 30 30 29 27 27 26 25 26 24 26 28 28 27 26 25 26 26 26 26 26 25 24 22 22 22 20 18 16 16 16 16 16 17 19 23 27 30 27 22 25
3 3 4 2 2 4 2 2 1 3 2 3 2 2 2 4 2 4 5 5 4 3 4 4 4 4 4 4 4 4 4 2 2 2 3 4 3 3 3 4 5 4 4 5 8 11 12 14 17 19 21 24 25 27 30 31 31 29 27 25 24 24 23 24 25 24 26 28 28 29 29 27 27 26 27 27 27 27 26 24 23 23 22 21 19 18 17 17 17 17 18 20 23 26 26 26 25
5 5 3 3 4 4 3 3 3 2 2 4 4 1 1 5 1 3 3 4 5 6 6 5 5 5 5 5 5 4 4 3 3 2 3 3 2 2 2 3 3 2 2 3 6 9 10 11 14 16 17 19 21 24 26 27 28 28 27 26 23 22 21 22 24 25 27 28 29 29 29 30 30 29 28 28 27 27 27 26 25 24 23 22 22 20 19 17 17 18 19 19 21 23 26 28 27
4 3 3 3 2 1 1 3 2 2 3 3 5 0 2 4 1 3 3 4 6 6 6 5 5 6 5 5 5 5 4 4 3 4 6 6 5 5 5 4 3 2 2 3 5 7 9 10 13 14 14 15 17 19 22 24 24 25 25 26 24 23 22 22 23 24 25 27 28 29 30 30 31 31 30 29 28 28 27 27 27 26 25 24 23 22 21 19 19 18 19 20 21 21 23 26 29
3 3 3 4 5 3 3 2 3 4 2 4 5 2 3 2 2 5 4 4 6 6 5 5 6 6 6 5 5 4 4 4 4 5 8 8 7 6 6 5 5 3 2 3 4 5 7 9 11 13 12 13 15 16 18 20 21 22 22 23 23 23 24 24 24 24 23 24 25 27 28 29 31 31 30 30 30 29 28 28 28 27 26 25 25 24 23 22 21 19 18 19 21 22 22 24 28
4 3 3 4 3 4 4 4 4 3 3 5 5 3 3 3 4 4 3 4 5 8 8 8 8 7 6 5 5 5 5 4 4 4 7 9 8 8 9 8 7 5 4 3 3 4 5 7 10 12 12 12 13 14 16 17 18 19 20 20 21 21 22 23 23 23 23 23 23 23 24 26 29 31 31 31 31 30 30 29 29 28 27 27 27 26 25 23 22 21 19 18 19 21 22 23 25
5 3 4 4 3 4 4 4 2 1 4 5 2 4 1 4 4 3 4 4 5 8 8 9 8 7 6 5 5 5 4 4 4 4 6 8 10 11 11 11 10 8 7 5 4 3 3 5 7 10 10 10 11 13 14 15 16 17 17 18 19 19 19 20 21 22 22 22 23 23 23 23 25 27 29 30 30 29 30 30 29 28 28 28 27 26 25 24 23 23 21 19 17 18 21 23 25
4 2 3 3 2 4 3 4 2 3 5 4 3 5 3 4 2 3 4 4 5 6 6 7 7 7 7 6 5 5 5 5 5 5 5 8 11 13 13 13 13 11 9 7 5 5 3 4 5 7 8 8 9 11 12 13 14 15 16 16 16 16 16 17 19 21 21 22 23 23 23 23 23 24 25 25 25 27 28 29 29 27 27 27 26 26 25 24 24 24 23 21 19 17 17 20 24
2 2 4 3 2 1 2 3 2 4 6 5 4 2 3 3 2 3 4 3 1 3 4 4 5 6 6 5 5 5 5 5 5 5 6 10 12 12 12 13 14 13 11 8 7 6 4 3 4 6 7 7 8 10 11 11 12 13 15 15 15 14 13 14 16 18 20 21 22 23 24 24 24 24 24 23 21 23 26 28 28 28 27 26 26 25 25 24 24 24 23 22 21 19 17 17 20
2 2 4 2 2 3 2 3 4 3 4 4 3 1 4 3 2 4 2 4 3 0 2 3 5 5 4 4 5 5 5 6 5 5 6 11 13 13 12 12 13 14 11 9 8 8 6 4 4 5 6 7 8 9 10 11 12 13 14 14 14 13 13 14 14 16 17 18 20 21 22 23 25 25 26 24 21 21 24 25 27 28 27 26 25 25 25 24 24 24 24 23 22 21 19 17 16
1 3 2 2 3 5 2 2 2 2 2 3 2 3 4 2 2 3 3 4 4 3 3 5 6 6 5 5 6 5 6 6 6 6 7 10 12 12 12 11 12 13 12 10 9 8 6 5 5 6 7 7 8 9 11 12 12 13 13 13 13 13 14 15 15 16 16 16 18 18 19 20 22 24 26 26 23 21 21 22 25 27 27 27 26 25 24 24 24 23 23 23 23 22 22 20 17
3 2 3 2 2 4 4 1 3 4 1 4 3 5 5 3 2 2 2 4 6 6 6 5 5 5 6 7 6 6 7 6 6 6 8 10 10 10 11 11 11 12 12 10 8 7 6 5 6 7 8 8 8 9 11 12 13 14 14 13 13 13 14 15 17 17 17 17 17 17 17 17 19 21 24 25 25 23 22 22 23 24 25 26 26 25 24 24 24 23 23 23 23 22 22 22 19
4 1 2 2 2 1 1 1 2 3 3 4 5 7 4 1 2 2 3 8 10 8 6 6 7 7 7 7 6 6 6 5 5 5 6 9 11 11 11 11 10 12 11 10 9 8 8 7 8 8 9 9 9 10 11 13 14 15 15 14 14 14 15 16 18 18 18 18 18 17 17 16 16 18 20 22 24 24 23 23 23 23 24 24 24 24 24 24 24 24 24 24 23 21 20 21 20
4 3 3 2 3 3 1 0 1 1 3 4 5 7 4 3 4 4 6 10 10 8 7 7 9 8 7 6 5 5 5 4 5 4 5 10 12 12 12 11 12 13 13 13 12 11 10 9 9 9 9 9 10 11 12 13 14 16 16 16 16 16 17 18 19 19 19 19 19 18 18 16 15 16 18 20 21 22 22 23 24 24 24 23 22 23 23 24 24 24 24 24 21 19 17 18 18
3 4 4 3 2 0 1 0 1 2 2 2 4 6 6 4 3 4 7 8 8 8 8 8 7 6 5 5 4 4 4 4 5 4 6 11 14 14 13 13 14 14 15 15 15 14 12 10 10 10 10 11 12 12 12 13 15 16 17 17 17 18 19 20 20 20 20 19 19 18 18 17 15 15 16 18 19 20 21 22 23 24 24 23 22 21 22 23 25 25 24 22 19 17 17 17 18
3 2 2 1 1 1 1 3 2 1 2 3 3 6 7 4 2 4 6 5 7 7 7 6 3 3 4 4 4 4 3 4 5 5 8 12 15 14 14 15 16 16 18 18 18 16 14 13 12 12 13 13 13 13 13 14 15 16 17 18 19 20 21 22 22 21 21 20 19 19 18 17 15 15 15 16 18 19 20 21 23 23 23 23 22 22 22 23 24 25 24 20 18 18 19 19 19
Wind_Direction
316 309 314 324 319 322 326 64 75 313 91 253 265 220 256 227 186 140 7 289 117 257 220 213 200 127 39 166 181 183 178 179 175 147 212 233 186 215 245 217 221 238 254 236 218 219 219 213 213 212 209 206 208 213 212 208 208 209 205 202 193 177 172 171 164 159 159 158 154 153 150 145 144 144 144 146 146 145 141 138 137 135 134 133 130 129 127 123 122 124 121 112 110 112 106 100 91
316 314 323 331 330 338 287 87 93 305 53 309 273 196 248 304 131 171 193 197 199 236 208 190 152 99 55 98 122 91 320 243 191 179 231 222 210 264 282 222 210 222 249 227 219 219 218 214 215 215 213 214 214 214 214 214 213 212 209 205 193 178 173 172 167 163 162 160 155 153 151 147 146 145 144 147 150 151 148 146 143 137 135 137 133 132 131 126 126 124 126 121 111 107 108 108 98
320 323 332 339 352 62 8 48 97 135 81 248 268 241 230 164 201 194 202 205 211 220 161 176 137 108 52 35 47 97 294 276 206 206 267 214 202 80 78 232 201 202 223 236 230 224 222 218 218 216 220 226 222 218 218 219 218 214 212 211 197 181 176 175 171 167 164 159 155 155 152 149 149 146 147 149 152 153 151 150 150 146 139 138 138 135 132 130 129 125 128 128 118 108 113 117 106
324 329 331 342 16 22 50 59 146 133 161 228 261 266 210 190 206 202 215 217 212 188 146 160 57 204 82 26 315 148 270 280 235 204 209 209 166 124 65 21 226 216 221 260 251 231 227 223 223 218 224 235 232 227 223 222 223 218 215 214 202 186 181 179 172 167 164 160 156 155 152 151 151 151 156 156 158 158 155 155 154 157 151 142 140 136 133 133 133 131 131 129 122 109 111 117 110
327 332 327 347 87 15 89 99 131 132 205 200 213 268 228 202 195 192 213 231 228 166 149 119 32 286 79 94 194 132 254 269 255 198 152 183 177 178 45 33 312 255 211 273 292 245 232 227 227 222 226 236 237 236 234 230 227 222 217 213 204 189 184 181 175 170 166 162 157 154 153 152 149 150 156 158 162 161 158 158 155 161 160 148 144 142 137 134 134 135 135 131 124 111 111 115 113
332 344 357 135 125 125 96 160 214 218 231 180 199 272 244 216 183 164 154 220 288 139 118 88 78 344 21 272 163 144 234 269 225 177 157 176 208 273 21 357 349 58 201 275 298 256 237 229 228 226 227 234 238 236 239 239 231 226 219 214 207 195 189 184 177 173 167 162 157 155 155 155 155 154 153 154 160 158 156 156 153 154 151 148 148 146 139 135 134 135 137 132 128 120 122 121 118
339 356 52 69 349 71 96 201 220 242 244 184 197 242 233 232 168 134 148 181 1 10 33 58 132 86 322 301 9 349 330 239 198 147 142 171 307 292 306 325 343 336 260 293 297 254 237 231 231 231 229 236 240 235 240 244 237 231 224 216 210 201 194 183 176 174 168 162 158 159 162 163 162 158 154 156 160 159 158 157 156 154 149 151 150 146 142 139 137 137 135 129 131 129 128 127 125
345 352 55 83 18 16 99 233 242 217 247 230 209 202 184 216 187 139 160 168 66 336 25 302 103 82 294 355 312 308 38 107 121 115 117 111 286 299 305 326 2 298 298 318 328 253 235 233 235 233 232 239 244 239 242 247 245 241 233 221 211 203 195 183 176 174 167 163 163 165 166 164 160 157 156 159 163 162 160 159 159 159 155 153 150 149 146 143 141 139 134 127 132 133 129 129 126
349 133 17 84 66 354 39 286 276 246 276 304 355 133 170 209 187 122 102 54 36 145 75 216 104 64 283 4 285 296 36 114 107 111 115 103 246 358 6 16 17 333 339 344 346 279 254 245 235 233 237 244 249 249 251 253 253 249 236 219 208 200 193 186 181 178 172 169 167 161 158 160 162 159 158 160 163 164 162 161 162 162 159 154 151 151 149 146 142 138 135 128 130 131 130 132 130
11 99 73 88 76 4 329 293 267 282 284 294 311 233 204 208 117 83 92 57 8 104 304 231 88 8 263 326 278 301 140 150 143 146 119 109 68 46 43 36 28 331 336 332 326 311 298 281 249 241 245 252 258 263 265 260 254 246 228 212 205 196 189 187 185 181 178 173 161 154 157 162 164 158 158 162 164 165 164 163 163 162 160 157 155 153 150 148 143 139 138 133 131 132 131 130 132
31 338 91 83 59 21 283 261 268 283 279 309 323 285 243 172 95 47 61 63 8 103 15 21 59 302 14 300 265 248 176 171 190 174 123 110 64 52 28 29 30 327 319 323 326 322 316 297 278 263 259 266 271 274 276 270 255 239 220 209 202 195 190 188 186 183 178 171 160 158 162 162 162 159 161 163 164 166 166 165 164 162 161 160 159 157 155 151 147 143 141 139 135 140 144 137 136
64 326 67 89 143 197 229 245 271 275 292 325 322 293 309 94 86 79 74 90 103 84 127 179 129 187 56 302 267 277 200 188 201 167 142 118 73 57 4 7 10 320 315 323 323 325 328 314 295 285 279 279 282 285 285 281 263 240 224 212 204 198 195 190 187 182 175 168 161 161 162 161 161 161 163 163 165 168 168 167 165 166 166 164 163 162 160 155 151 147 146 145 140 150 158 149 142
120 178 84 112 193 179 225 254 273 316 312 290 238 284 36 69 109 168 125 108 131 77 284 222 147 106 176 267 293 318 272 206 180 149 155 102 68 55 359 341 339 327 323 318 309 309 314 318 314 302 297 293 292 294 293 292 279 255 234 220 208 202 200 193 188 180 171 167 161 161 163 160 160 163 165 165 167 169 170 168 168 171 171 171 168 165 165 161 157 153 150 147 144 158 162 156 150
162 161 111 186 252 157 227 266 292 28 269 253 266 307 29 75 175 167 113 95 91 96 275 235 135 92 324 326 332 308 289 170 141 133 107 71 28 20 10 353 350 345 343 330 317 308 303 306 307 306 306 302 298 297 297 297 295 282 249 229 216 204 200 194 185 175 165 162 159 160 162 158 160 165 166 167 168 170 171 169 171 173 172 172 168 165 167 164 162 159 153 149 147 161 160 157 157
173 135 98 125 323 328 234 232 224 137 212 269 349 344 66 62 173 99 100 115 44 280 333 25 81 94 294 18 325 288 268 127 125 126 84 21 338 348 348 354 358 354 348 336 331 320 313 309 304 303 303 303 303 301 300 295 294 300 278 255 244 213 199 191 177 161 152 155 156 158 159 157 163 168 168 171 171 173 175 173 174 174 175 173 168 169 173 167 159 156 155 151 149 161 161 158 162
146 102 70 62 279 279 230 222 137 118 224 271 332 358 80 349 343 99 293 93 60 333 22 26 18 26 12 31 1 355 35 62 57 47 38 22 7 1 355 353 341 336 336 331 335 328 324 321 317 311 304 304 309 310 307 300 293 303 298 277 268 227 192 174 161 150 148 155 157 158 158 160 167 171 172 174 175 177 179 178 177 178 177 176 172 173 181 181 168 156 154 156 157 167 166 162 163
62 82 75 310 216 208 217 201 153 154 222 260 320 1 97 334 335 115 353 51 57 347 32 33 32 43 38 30 21 25 40 43 42 41 34 28 21 19 16 12 3 352 340 324 317 319 323 324 331 329 317 309 308 311 307 303 301 304 298 267 246 216 172 153 151 150 152 157 163 165 165 168 172 175 176 178 180 180 181 180 180 182 181 181 180 175 178 184 181 175 171 170 172 172 168 165 164
61 92 123 217 200 196 195 184 206 167 167 224 288 5 105 62 318 342 17 22 18 14 26 28 38 42 34 29 30 36 43 42 41 40 33 27 23 20 15 13 12 8 1 344 325 316 316 313 330 343 333 318 310 313 308 302 305 303 276 221 202 191 170 157 156 157 159 163 174 178 176 179 181 183 182 183 185 182 182 181 182 185 184 184 183 182 181 176 177 191 194 187 187 182 172 169 167
114 125 142 221 204 207 208 193 222 169 160 189 224 232 117 149 245 28 50 13 23 28 2 12 31 20 18 21 26 33 39 39 37 37 34 27 22 19 10 7 8 9 10 6 1 351 335 316 309 332 342 328 316 314 310 301 292 288 245 207 197 185 174 168 163 165 169 171 179 184 185 188 188 188 188 188 188 186 185 183 185 187 186 186 185 185 186 180 177 195 207 200 202 198 186 179 173
171 130 165 240 215 228 251 205 209 205 161 149 204 233 112 129 269 39 99 57 42 39 345 9 31 7 6 13 22 30 35 36 33 34 32 27 24 20 13 7 3 4 5 9 16 14 4 345 315 308 326 331 321 310 306 297 272 259 234 213 205 192 183 179 173 173 178 178 181 187 191 192 190 190 191 192 191 189 188 185 186 187 186 187 189 186 184 186 185 195 213 211 206 199 190 185 178
188 147 187 231 204 233 253 204 184 192 157 141 190 35 57 28 31 32 118 80 37 36 5 21 41 15 11 14 24 30 34 33 30 30 27 24 22 18 15 10 5 5 8 13 18 16 13 7 344 308 299 315 323 315 305 288 256 238 228 216 208 198 191 187 183 182 184 184 186 190 194 192 190 190 191 192 192 190 189 187 187 187 187 187 189 188 185 191 191 194 210 217 207 195 185 183 179
169 221 216 222 187 234 248 201 171 169 103 112 111 56 54 51 38 23 79 89 36 46 40 35 48 38 37 32 31 33 34 32 28 27 24 21 19 16 13 11 11 10 14 17 17 15 14 14 5 332 290 288 305 317 319 292 252 232 227 217 210 204 199 193 189 188 188 189 190 193 194 192 191 192 192 193 193 192 191 190 189 189 189 189 190 189 188 194 197 200 212 216 202 191 182 180 180
218 274 271 235 206 236 253 183 146 135 90 106 149 111 109 89 63 29 65 82 68 69 75 63 55 56 59 50 42 37 33 30 28 25 22 21 19 17 13 12 13 12 14 16 15 14 15 18 14 2 319 291 288 294 312 312 275 244 229 216 212 210 204 197 195 196 195 195 196 198 197 195 195 194 194 196 195 194 195 193 191 192 193 192 193 193 194 197 201 206 215 211 197 190 184 183 184
207 255 292 250 222 233 235 133 112 146 143 233 149 109 111 108 107 60 63 70 64 71 79 77 66 58 56 51 45 41 37 33 29 26 25 25 21 20 19 17 16 15 16 15 14 14 15 18 18 17 5 331 303 283 282 301 302 271 247 227 217 212 207 204 203 203 203 204 204 203 201 199 197 196 196 198 197 196 197 196 195 196 197 198 198 199 200 201 204 206 206 202 196 194 193 192 192
197 226 270 286 283 270 266 274 209 197 205 175 100 84 102 120 116 87 75 77 68 77 78 70 62 54 50 47 44 39 38 34 29 27 27 26 23 22 22 19 19 19 17 14 14 14 15 17 21 24 21 8 345 306 281 283 294 295 274 252 236 222 212 211 211 209 208 207 208 206 203 202 201 199 200 199 197 198 199 200 199 200 201 203 203 203 204 205 205 205 203 200 198 199 199 199 200
229 219 246 284 292 288 291 291 251 216 200 145 104 83 103 118 99 75 65 86 94 83 69 55 56 54 49 46 42 38 36 32 27 27 28 26 25 24 21 19 20 20 17 16 16 15 16 20 24 26 27 25 15 356 330 301 287 290 287 273 256 239 227 220 217 214 212 209 210 210 207 207 206 205 203 200 200 202 203 205 205 204 205 206 207 206 208 208 207 206 207 206 203 201 202 203 203
258 271 288 284 293 302 288 279 273 218 200 170 126 102 106 29 65 91 46 72 108 79 61 47 55 55 50 48 42 40 38 31 26 26 28 26 25 23 19 18 19 19 18 18 18 16 18 22 25 26 30 31 29 24 15 355 317 296 284 285 271 246 241 238 228 220 212 211 213 211 209 209 210 209 207 205 206 207 207 208 207 206 208 209 211 211 210 210 210 210 210 210 207 206 206 208 208
307 345 322 304 322 317 287 279 269 174 200 170 122 103 32 7 52 120 84 71 92 78 64 49 57 55 51 51 44 43 39 32 29 30 29 25 24 23 22 20 19 19 21 20 18 19 22 24 24 27 30 33 34 33 27 21 7 342 299 281 281 261 262 271 266 250 226 219 215 210 208 209 210 211 211 210 210 210 209 209 208 209 211 211 212 214 213 213 214 214 215 215 213 212 210 212 213
334 22 326 302 343 326 294 303 247 152 168 163 121 93 3 19 76 122 104 100 83 75 68 54 57 56 51 51 48 46 40 34 33 33 31 28 27 25 26 25 23 23 22 22 23 24 24 25 25 27 30 33 36 36 32 30 25 19 360 311 301 288 288 300 301 288 260 248 242 224 213 211 211 213 214 213 213 214 213 212 211 212 213 212 213 215 215 216 216 216 216 217 218 216 213 213 213
301 351 322 304 354 327 298 337 128 119 154 170 120 176 305 38 84 110 111 114 83 72 64 61 60 56 54 50 50 48 41 37 35 34 31 30 29 28 28 27 28 28 26 27 28 27 26 27 28 28 30 32 34 36 35 33 31 31 27 14 355 337 334 339 334 320 295 275 260 246 234 226 219 218 217 214 216 218 216 215 215 215 214 214 215 215 216 217 218 218 218 218 220 219 216 214 214
288 312 4 345 350 286 303 348 95 93 301 82 92 231 235 113 55 54 66 98 92 84 68 69 65 59 58 49 52 49 43 41 37 35 33 31 30 29 30 29 30 31 29 31 30 30 29 30 31 31 31 31 31 33 33 32 32 33 33 31 22 9 10 8 355 346 331 309 281 261 250 250 241 231 226 218 220 220 218 219 218 217 215 214 215 216 217 219 219 220 221 220 220 221 219 217 217
19 6 318 344 173 270 309 339 91 110 217 54 80 223 231 136 104 46 66 89 93 94 82 75 69 61 60 50 53 49 45 44 40 37 33 32 32 30 31 30 31 32 32 32 31 32 32 32 33 33 33 32 31 30 28 30 31 33 33 33 30 23 23 21 9 358 347 338 325 306 279 271 264 249 240 234 233 229 226 224 220 218 216 215 218 218 218 220 221 222 223 223 222 221 221 220 221
356 109 246 271 193 285 320 328 348 119 143 33 54 171 186 133 128 66 66 91 92 95 88 76 71 64 62 56 52 50 43 40 38 34 32 32 32 32 33 32 33 34 34 34 33 33 32 32 33 33 33 33 32 30 27 26 28 30 30 31 31 30 30 27 20 13 3 356 348 344 327 303 290 276 258 247 246 244 240 235 229 225 222 221 222 220 219 221 222 223 224 224 225 225 224 223 224
334 25 254 248 227 263 302 306 323 68 119 22 43 102 143 125 119 88 62 90 92 91 90 80 78 69 64 62 56 50 45 41 35 31 30 32 32 33 34 33 34 35 36 36 36 36 34 33 32 32 32 33 33 31 30 28 26 27 27 28 28 29 32 29 25 25 22 12 1 357 353 340 326 315 297 270 258 254 249 245 241 235 229 226 224 222 221 222 223 224 224 222 224 227 228 227 227
263 271 269 290 286 244 243 272 274 62 103 143 85 89 127 116 104 90 62 84 93 92 94 86 81 76 69 63 59 54 48 47 38 33 32 32 32 32 33 34 34 34 35 35 36 36 36 34 33 33 31 31 31 30 29 28 27 25 23 23 24 25 27 26 24 24 25 22 14 7 1 358 353 344 337 320 296 279 267 260 253 245 239 234 228 225 223 222 221 221 221 221 220 223 229 232 232
202 206 177 229 271 267 245 251 254 212 152 142 125 129 141 135 116 100 81 81 92 94 90 85 79 73 70 63 60 59 54 49 39 37 35 33 33 33 34 35 35 35 34 34 35 34 34 33 32 32 30 28 29 28 28 25 24 23 21 20 19 18 19 21 20 19 22 22 17 13 7 4 2 358 356 348 335 319 303 289 272 256 247 240 235 232 227 224 222 220 219 219 220 221 225 231 233
162 166 177 225 238 278 272 263 286 228 157 317 116 127 133 140 133 120 113 90 88 92 86 83 81 74 72 69 63 59 58 53 44 41 37 35 35 35 35 35 34 35 34 34 34 33 33 32 31 31 28 27 27 27 27 25 22 19 18 16 14 12 12 14 16 15 17 18 15 13 10 8 5 4 3 358 353 344 331 318 302 282 262 245 235 234 232 228 224 223 220 218 221 221 221 224 227
182 190 212 279 227 250 272 264 308 320 132 351 98 115 126 139 130 119 109 98 98 106 100 92 93 87 80 77 68 57 54 44 39 38 35 35 34 34 35 35 34 34 33 33 34 34 33 33 32 30 28 28 27 26 25 25 24 21 19 16 14 13 12 13 13 13 14 14 13 12 10 8 7 7 6 3 1 357 350 340 327 312 293 264 242 235 232 229 225 223 219 217 220 221 221 222 220
141 182 160 309 263 267 293 304 337 351 71 126 121 113 128 144 103 92 87 99 116 120 120 124 116 100 88 90 82 62 45 26 28 30 31 34 35 36 37 36 37 36 34 34 33 33 33 32 32 30 29 28 27 25 24 23 21 21 22 19 19 19 16 16 15 13 13 13 13 13 10 7 6 7 7 6 5 3 359 353 346 336 319 296 265 246 236 232 229 224 219 218 217 216 220 222 218
94 253 104 281 288 323 286 313 339 336 27 146 138 109 140 169 71 69 68 97 111 106 111 114 112 113 113 112 105 88 73 43 25 18 25 33 36 38 40 38 38 38 36 34 33 33 33 32 31 30 29 28 27 25 24 22 19 17 18 18 19 20 16 15 15 13 12 11 12 12 11 8 6 5 4 4 5 5 4 359 355 349 340 324 298 270 251 242 236 231 227 224 218 210 212 217 219
296 215 187 234 261 232 223 290 328 331 351 113 121 69 279 177 140 135 95 97 106 98 96 86 80 102 102 94 94 96 103 89 48 9 10 29 37 39 38 36 35 35 33 31 30 30 30 29 28 27 28 27 26 24 23 22 20 16 14 14 14 15 14 13 11 8 7 8 9 9 10 9 8 6 4 3 2 3 5 4 0 354 347 337 323 306 282 262 248 239 233 228 224 217 213 213 215
324 246 198 192 194 232 291 332 346 6 351 6 127 52 293 182 168 189 154 127 130 109 107 114 109 100 99 102 114 118 123 142 135 40 25 31 33 29 23 22 24 25 27 26 25 25 25 25 23 21 21 21 21 21 20 21 22 20 18 17 14 14 13 12 9 4 2 4 4 4 6 7 7 6 5 4 2 1 2 3 3 359 352 342 332 323 310 294 273 256 243 234 229 227 222 215 212
333 272 181 149 143 273 315 355 7 62 273 284 146 174 264 258 193 194 172 159 166 140 136 157 151 128 137 160 173 178 185 175 92 46 54 45 32 25 15 9 11 15 19 22 25 27 27 26 24 21 18 17 16 15 15 18 21 23 23 23 19 16 11 8 7 4 1 3 4 3 2 3 3 3 2 2 1 1 1 1 2 1 357 351 342 331 322 315 302 284 265 250 240 235 232 226 220
286 250 124 122 274 285 257 146 212 225 231 313 300 168 254 288 234 175 157 161 181 178 181 194 177 165 175 186 198 198 191 160 109 64 75 71 47 29 359 338 341 345 355 15 29 35 35 32 27 25 22 18 15 12 12 13 16 18 20 22 21 18 12 7 6 6 5 5 6 5 3 0 0 360 358 358 357 357 358 358 358 359 358 356 353 345 334 324 315 306 291 271 256 246 238 235 235
252 214 179 266 271 252 214 165 208 248 35 323 302 111 224 279 320 104 141 175 207 202 198 203 186 182 191 195 208 202 192 186 166 168 172 168 186 209 244 267 277 286 323 13 30 37 39 37 31 28 27 23 17 13 10 10 11 12 13 15 16 14 11 7 6 7 7 6 6 5 4 2 360 358 356 356 355 355 355 356 355 355 356 355 354 352 346 337 326 315 306 293 276 261 248 241 241
267 215 237 302 33 96 133 133 157 40 43 272 279 338 191 268 264 143 176 220 219 203 197 204 193 193 196 196 208 201 203 231 220 202 201 201 208 216 227 240 251 268 320 4 22 33 32 33 31 29 29 26 21 15 11 9 8 8 8 9 10 9 7 4 4 5 5 6 6 5 4 2 0 359 356 355 354 354 353 353 353 352 352 351 350 350 348 346 340 328 314 304 295 282 268 255 248
327 22 339 3 41 40 49 87 96 58 345 257 264 261 174 271 268 179 192 228 195 174 182 205 205 205 204 201 203 197 206 234 237 222 215 215 220 222 227 239 246 255 281 330 3 18 21 25 27 27 26 22 19 15 11 9 7 6 6 5 4 5 4 2 0 1 3 5 6 6 3 0 359 358 357 355 355 354 352 351 351 349 347 346 345 345 345 344 343 337 326 312 301 292 284 273 260
25 41 17 20 8 12 23 359 41 72 283 254 261 281 171 206 267 213 238 270 184 172 180 189 197 203 205 205 206 204 210 225 233 234 227 225 226 224 227 238 246 251 262 290 326 347 6 16 16 17 16 12 12 10 8 8 6 5 4 3 1 0 1 1 359 358 359 2 3 3 2 0 359 358 356 355 355 354 353 351 350 349 347 346 343 341 340 340 339 336 334 326 311 297 287 279 269
36 40 46 43 1 5 10 332 358 155 253 240 273 341 268 226 256 230 258 267 195 183 178 177 185 194 199 205 211 216 217 225 235 241 236 232 232 232 235 240 243 247 251 263 277 289 339 1 3 5 3 359 359 358 359 1 2 2 1 0 359 356 357 359 357 356 355 357 359 360 360 359 359 358 356 353 352 353 353 352 350 348 346 345 343 341 338 336 336 334 334 333 326 311 293 281 273
13 40 76 70 41 17 333 297 322 292 270 274 347 7 310 279 291 205 232 243 196 177 169 175 180 183 191 202 209 221 228 231 235 239 239 237 238 241 245 246 245 245 245 247 252 256 292 337 346 352 351 347 346 346 347 349 352 354 354 355 355 354 353 352 352 352 351 350 352 354 356 357 357 356 355 352 351 350 349 350 350 348 345 343 343 343 340 337 335 332 332 332 332 328 312 292 279
318 175 122 99 106 93 269 240 255 286 283 295 341 19 225 260 315 226 238 278 230 153 157 170 180 184 189 203 216 226 232 235 235 239 243 245 248 249 253 254 247 242 240 237 239 243 259 305 323 334 338 333 334 335 336 336 339 343 343 344 346 346 345 344 345 347 347 346 346 347 349 352 354 354 353 352 352 350 346 346 348 348 346 344 343 343 341 339 336 332 330 329 329 331 328 310 290
289 140 87 47 175 160 190 209 213 271 312 300 300 238 208 206 273 269 311 347 339 266 162 157 185 203 197 211 228 227 230 239 238 238 248 253 256 257 261 266 254 240 235 234 234 237 250 281 302 313 317 316 321 323 323 323 324 328 331 332 333 332 331 332 335 339 340 340 340 341 343 347 350 351 352 352 351 349 346 345 345 346 345 344 343 343 342 340 337 334 332 328 325 325 327 324 313
352 56 65 268 186 140 127 284 289 31 358 289 296 294 287 335 299 279 359 346 299 256 225 191 199 215 213 220 230 230 233 241 239 237 247 256 264 263 263 274 262 238 229 231 235 242 254 279 295 296 296 298 307 311 313 315 313 314 319 320 320 320 320 320 323 326 328 328 330 333 336 340 345 349 350 350 349 346 346 345 343 344 344 343 342 341 340 339 338 336 333 330 326 324 322 320 322
74 33 247 255 56 90 105 9 350 24 310 274 313 299 292 342 327 302 344 293 259 239 230 222 220 221 226 233 233 233 236 239 246 251 257 262 268 265 265 274 263 238 231 235 241 249 259 279 289 285 283 289 298 304 308 309 306 305 307 308 308 309 311 312 311 313 314 315 318 321 324 329 337 344 346 349 348 345 344 343 343 343 342 341 340 339 337 336 336 336 334 330 327 327 323 317 317
80 104 244 79 61 343 24 37 325 334 296 288 308 300 286 223 231 244 240 240 234 227 222 228 233 227 228 236 236 241 245 250 258 265 270 269 269 268 271 274 255 235 233 238 243 251 261 274 278 274 276 284 294 299 301 302 302 300 298 298 299 300 302 304 302 301 302 304 308 311 313 318 327 336 342 347 348 346 342 340 340 340 340 339 337 336 335 334 333 333 333 331 330 330 326 321 319
22 29 1 41 134 181 222 98 179 240 281 289 306 312 301 234 212 202 226 233 222 210 209 219 227 225 225 232 238 243 245 255 264 269 275 271 271 276 275 266 250 239 239 242 246 255 262 267 265 261 266 275 282 287 289 291 293 292 290 291 294 295 296 297 295 291 291 295 300 303 304 307 317 328 336 343 347 346 342 338 336 336 336 337 335 333 332 331 331 330 329 330 330 330 329 327 325
11 28 14 355 340 354 335 339 129 154 222 263 299 301 280 252 206 199 234 240 212 195 202 214 222 228 235 239 243 247 251 268 271 269 273 274 278 281 271 257 251 246 245 246 250 256 261 261 256 256 262 268 272 275 278 281 283 281 280 282 288 293 294 293 289 284 285 289 292 294 295 299 307 318 329 339 344 345 342 337 333 333 333 333 332 331 330 328 327 327 328 328 327 327 326 327 326
149 103 78 124 289 20 356 304 308 91 157 206 263 285 275 270 216 210 232 229 206 197 196 200 215 253 256 254 257 262 264 271 273 273 277 278 279 279 270 259 252 248 249 252 254 257 260 258 256 257 260 262 265 269 272 277 277 272 270 274 282 288 291 290 285 281 282 284 285 286 287 290 297 309 322 334 341 343 341 336 332 330 329 328 328 328 327 326 324 325 326 325 322 322 322 322 322